Mayo Airport
CYMA : now visible

Airfield :











YOU CAN JOIN US ON...

 
LOGIN :

Register | Disclaimer

   EN    FR    IT 

 









Legend :    VFR   Marginal VFR   IFR   Intensive IFR   Very Intensive IFR
Visi :
Ceiling :
>= 8 km
>= 3000ft
5 to 8 km
1000 to 3000 ft
1500m to 5 km
500 to 1000 ft
800 to 1500m
200 to 500 ft
< 800m
< 200 ft
Symbols :   Thunderstorms  Fog  Heavy snow  Heavy precipitations  Wind > 20 kt






- Airport Elevation : 1653 ft
- IATA code : YMA


CYMA - Mayo

CURRENT METAR :
  • 261200Z 05004KT 360V110 15SM BKN055 OVC075 00/M04 A2972 RMK SC6AC2 CLIMAT 1.8/0.3/0.0 SLP092

EXPIRED METARs :
  • 261100Z 01006KT 15SM BKN055 OVC075 01/M04 A2972 RMK SC6AC2 SLP091
  • 261000Z 03005KT 15SM BKN060 OVC075 01/M04 A2972 RMK SC5AC3 SLP091

TAF TAF CYMA
Valid from the 26 at 12:00 until the 27 at 00:00 UTC


261138Z 2612/2624 01008KT P6SM BKN050 OVC070
FM261800 02008KT P6SM FEW050 BKN200 RMK NXT FCST BY 261800Z
CZEG FIR / North America



MET'MAP, your aeronautical weather chart ! - Copyright ORBIFLY December 2007 - Disclaimer

ORBIFLY MET'MAP TEAM :

Programming & Development : Alexandra Zaïnal
Concept & original design : Baudouin d'Aumeries
Assistance for programming : Marc-Olivier Méhu
Technical & hardware support : Manuel Goepfert

Contact : metmap@orbifly.com




SOURCES & CREDITS :

   NOAA       Earth
Advisory